Weather observations for the past three days for
Cedar Rapids Airport
Imperial (Metric)
Date Time (cdt) Wind (mph) Vis. (mi.) Weather Sky Cond. Temperature (ºF) Relative Humidity Wind Chill (°F) Heat Index (°F) Pressure Precipitation (in)
Air Dwpt 6 hour altimeter (in) sea level (mb) 1 hr 3 hr 6 hr
Max. Min.
15 21:52 S 12 G 23 10.00 Fair CLR 77 57.9 52% 79 29.87 1011.0
15 20:52 S 12 10.00 Fair CLR 79 59 50% 80 29.86 1010.4
15 19:52 S 13 10.00 Fair CLR 81 57.9 45% 81 29.86 1010.7
15 18:52 S 13 G 23 10.00 Fair CLR 81 59 84 78.1 47% 81 29.88 1011.3
15 17:52 S 14 10.00 Fair CLR 81 57 44% 81 29.9 1011.9
15 16:52 S 15 G 30 10.00 Fair CLR 82.9 55.9 40% 82 29.91 1012.1
15 15:52 SE 14 10.00 Fair CLR 80.1 57.9 47% 81 29.91 1012.3
15 14:52 SE 13 10.00 Fair CLR 80.1 57 45% 80 29.97 1014.3
15 13:52 SE 14 10.00 Mostly Cloudy BKN110 79 57.9 49% 80 30 1015.3
15 12:52 SE 10 10.00 Fair CLR 78.1 57 79 64 48% 79 30.02 1016.0
15 11:52 SE 10 10.00 Fair CLR 75.9 57 52% 78 30.05 1016.9
15 10:52 SE 7 10.00 Fair CLR 73 55 53% 30.06 1017.5
15 09:52 S 7 10.00 Fair CLR 72 54 53% 30.08 1018.0
15 08:52 SE 9 10.00 Fair CLR 69.1 53.1 57% 30.1 1018.9
15 07:52 SE 9 10.00 Fair CLR 66 54 65% 30.09 1018.5
15 06:52 E 7 10.00 Fair CLR 64 55.9 66.9 62.1 75% 30.08 1018.0
15 05:52 E 5 10.00 A Few Clouds FEW095 64 55.9 75% 30.08 1017.8
15 04:52 E 5 10.00 Fair CLR 64 55.9 75% 30.08 1017.9
15 03:52 E 7 10.00 Fair CLR 64 55.9 75% 30.05 1016.9
15 02:52 E 7 10.00 Fair CLR 66 55.9 70% 30.06 1017.3
15 01:52 E 9 10.00 Fair CLR 66 55 68% 30.04 1016.6
15 00:52 E 6 10.00 Fair CLR 64.9 54 82 64.9 68% 30.04 1016.8
14 23:52 E 6 10.00 Fair CLR 69.1 54 59% 30.05 1017.0
14 22:52 E 9 10.00 Fair CLR 68 54 61% 30.03 1016.3
14 21:52 NE 9 10.00 Fair CLR 72 52 50% 30.04 1016.7
14 20:52 E 8 10.00 Fair CLR 73.9 53.1 48% 30.03 1016.3
14 19:52 NE 7 10.00 Fair CLR 78.1 53.1 42% 79 30.03 1016.3
14 18:52 N 7 10.00 Fair CLR 80.1 52 84.9 80.1 38% 80 30.02 1016.2
14 17:52 N 9 10.00 Fair CLR 82.9 48.9 31% 81 30.02 1016.0
14 16:52 N 12 10.00 Fair CLR 84.9 48 28% 83 30.03 1016.2
14 15:52 N 13 10.00 Fair CLR 84.9 48 28% 83 30.03 1016.3
14 14:52 NW 9 G 18 10.00 Fair CLR 84 46 27% 82 30.03 1016.4
14 13:52 NW 10 G 25 10.00 Fair CLR 82.9 46.9 28% 81 30.04 1016.6
14 12:52 NW 16 G 26 10.00 Fair CLR 82.9 46 84 64.9 27% 81 30.04 1016.7
14 11:52 N 15 G 25 10.00 Fair CLR 82 48 31% 81 30.05 1016.7
14 10:52 NW 14 G 23 10.00 Fair CLR 82 53.1 37% 81 30.05 1017.0
14 09:52 N 16 G 26 10.00 Fair CLR 79 53.1 41% 79 30.04 1016.6
14 08:52 NW 9 10.00 Fair CLR 75 57.9 55% 78 30.04 1016.6
14 07:52 W 6 10.00 Fair CLR 70 62.1 76% 30.03 1016.5
14 06:52 N 8 10.00 NULL NULL 64 60.1 69.1 60.1 87% 30.01 1015.8
14 05:52 NW 7 10.00 Fair CLR 62.1 57.9 86% 29.99 1015.0
14 04:52 NW 7 10.00 Fair CLR 62.1 57.9 86% 29.98 1014.6
14 03:52 N 5 10.00 Fair CLR 64 57.9 81% 29.98 1014.4
14 02:52 NW 5 10.00 Fair CLR 64 57.9 81% 29.97 1014.1
14 01:52 NW 7 10.00 Mostly Cloudy BKN120 66 60.1 81% 29.98 1014.3
14 00:52 N 7 10.00 A Few Clouds FEW120 69.1 57.9 84 69.1 68% 29.94 1013.3
13 23:52 N 7 10.00 A Few Clouds FEW120 73 57.9 59% 29.93 1012.7
13 22:52 N 6 10.00 Fair CLR 73.9 57.9 57% 29.92 1012.4
13 21:52 N 6 10.00 Fair CLR 78.1 55.9 47% 79 29.89 1011.4
13 20:52 N 3 10.00 Fair CLR 77 57 50% 79 29.87 1010.7
13 19:52 N 6 10.00 Partly Cloudy SCT095 81 57 44% 81 29.87 1010.7
13 18:52 NE 5 10.00 Overcast BKN080 OVC095 82 57.9 93 82 44% 82 29.86 1010.4
13 17:52 N 13 10.00 Overcast BKN075 OVC095 84.9 54 35% 83 29.86 1010.3
13 16:52 NE 17 G 28 10.00 Mostly Cloudy SCT075 BKN100 86 53.1 32% 84 29.85 1010.2
13 15:52 N 17 G 25 10.00 Mostly Cloudy BKN080 90 54 29% 88 29.86 1010.4
13 14:52 NE 20 G 29 10.00 Fair CLR 91 52 26% 88 29.86 1010.4
13 13:52 N 16 G 26 10.00 Fair CLR 90 55 31% 88 29.87 1010.6
13 12:52 N 13 10.00 Fair CLR 87.1 68 90 73 53% 91 29.87 1010.6
13 11:52 Vrbl 7 10.00 Fair CLR 87.1 70 57% 92 29.84 1009.6
13 10:52 N 9 10.00 Fair CLR 84.9 70 61% 89 29.83 1009.3
13 09:52 NW 9 10.00 Fair CLR 82 69.1 65% 85 29.82 1008.8
13 08:52 W 12 10.00 Fair CLR 80.1 68 67% 83 29.81 1008.7
13 07:52 SW 12 10.00 Fair CLR 75.9 66 72% 77 29.79 1008.0
13 06:52 S 9 10.00 Fair CLR 73 66 75 70 79% 29.77 1007.2 0.02
13 05:52 S 8 10.00 Fair CLR 70 64.9 84% 29.77 1007.2
13 04:52 S 9 10.00 Fair CLR 71.1 64.9 81% 29.77 1007.3
13 03:52 S 12 10.00 Mostly Cloudy SCT070 BKN090 72 66 82% 29.78 1007.4 0.02
13 02:52 SW 9 10.00 Thunderstorm in Vicinity BKN075 OVC090 72 66 82% 29.79 1007.9
13 01:52 SW 10 8.00 Thunderstorm in Vicinity Light Rain FEW090 BKN110 71.1 66 84% 29.79 1008.0 0.02
13 00:52 S 10 10.00 Fair CLR 73.9 63 86 73 69% 29.8 1008.3
12 23:52 S 8 10.00 Fair CLR 73.9 63 69% 29.8 1008.4
12 22:52 S 12 10.00 Fair CLR 77 62.1 60% 79 29.81 1008.7
Date Time (cdt) Wind (mph) Vis. (mi.) Weather Sky Cond. Air Dwpt Max. Min. Relative Humidity Wind Chill (°F) Heat Index (°F) altimeter (in) sea level (mb) 1 hr 3 hr 6 hr
6 hour
Temperature (ºF) Pressure Precipitation (in)